Location: Newark
(28.2500°S, 54.0200°W)
Time: 21:49:40
(UTC+00:00)

LightSail 2 - Visible Passes

Search period start: 11 November 2019 00:00
Search period end: 21 November 2019 00:00
Orbit: 702 x 726 km, 24.0° (Epoch: 10 November)

Date Brightness Start Highest point End Pass type
(mag) Time Alt. Az. Time Alt. Az. Time Alt. Az.
11 Nov 5.7 22:36:30 10° W 22:41:22 45° N 22:45:51 12° ENE visible
12 Nov 7.0 00:22:32 10° WNW 00:24:49 20° NW 00:24:49 20° NW visible
12 Nov 6.3 23:24:25 10° WNW 23:28:49 29° NNW 23:30:29 24° NNE visible
13 Nov 6.1 22:26:24 10° W 22:31:04 35° NNW 22:35:42 10° NE visible
14 Nov 7.3 00:13:14 10° WNW 00:15:07 14° NW 00:15:07 14° NW visible
14 Nov 6.8 23:14:42 10° WNW 23:18:24 20° NNW 23:20:47 15° NNE visible
16 Nov 7.3 23:05:45 10° NW 23:07:55 13° NNW 23:10:04 10° N visible
